Location: Zagreb
(45.8000°N, 16.0000°E)
Time: 21:13:24
(UTC+01:00)

deb Explorer IX - Pass Details

Date: 03 October 2020
Orbit: 537 x 1106 km, 38.8° (Epoch: 30 October)

Event Time Altitude Azimuth Distance (km) Brightness Sun altitude
Rises 18:43:11 0° 257° (WSW) 3,178 ? -2.8°
Reaches altitude 10° 18:45:56 10° 249° (WSW) 2,155 ? -3.3°
Maximum altitude 18:50:24 35° 184° (S) 1,025 ? -4.1°
Drops below altitude 10° 18:54:22 10° 118° (ESE) 1,899 ? -4.8°
Enters shadow 18:55:42 - 112° (ESE) 2,385 ? -5.0°
Sets 18:56:39 0° 109° (ESE) 2,746 - -5.2°
